TimeCDT,TemperatureF,Dew PointF,Humidity,Sea Level PressureIn,VisibilityMPH,Wind Direction,Wind SpeedMPH,Gust SpeedMPH,PrecipitationIn,Events,Conditions,WindDirDegrees,DateUTC
12:09 AM,40.3,38.5,93,30.02,10.0,NW,3.5,-,N/A,,Clear,320,2012-09-18 05:09:00
12:26 AM,41.9,39.6,91,30.02,10.0,WNW,4.6,-,N/A,,Clear,300,2012-09-18 05:26:00
12:49 AM,41.5,39.2,91,30.02,10.0,WNW,3.5,-,N/A,,Clear,300,2012-09-18 05:49:00
1:09 AM,40.5,38.3,92,30.02,10.0,Calm,Calm,-,N/A,,Clear,0,2012-09-18 06:09:00
1:28 AM,40.3,38.7,94,30.02,10.0,Calm,Calm,-,N/A,,Clear,0,2012-09-18 06:28:00
1:49 AM,40.5,38.7,93,30.02,10.0,WNW,4.6,-,N/A,,Clear,290,2012-09-18 06:49:00
2:25 AM,40.3,38.3,93,30.03,10.0,West,4.6,-,N/A,,Clear,280,2012-09-18 07:25:00
2:49 AM,39.2,37.4,93,30.02,10.0,WNW,3.5,-,N/A,,Clear,290,2012-09-18 07:49:00
3:09 AM,39.2,38.3,97,30.02,10.0,West,3.5,-,N/A,,Clear,280,2012-09-18 08:09:00
3:29 AM,39.2,38.5,97,30.01,10.0,Calm,Calm,-,N/A,,Scattered Clouds,0,2012-09-18 08:29:00
3:49 AM,39.2,38.7,98,30.01,10.0,WNW,4.6,-,N/A,,Clear,290,2012-09-18 08:49:00
4:09 AM,39.2,38.7,98,30.01,10.0,WNW,5.8,-,N/A,,Clear,290,2012-09-18 09:09:00
4:29 AM,39.2,38.5,97,30.01,10.0,Calm,Calm,-,N/A,,Clear,0,2012-09-18 09:29:00
4:49 AM,39.2,38.5,97,30.02,10.0,WNW,3.5,-,N/A,,Clear,300,2012-09-18 09:49:00
5:09 AM,39.2,38.5,97,30.01,10.0,NW,3.5,-,N/A,,Clear,310,2012-09-18 10:09:00
5:29 AM,39.2,38.7,98,30.02,10.0,WNW,3.5,-,N/A,,Clear,290,2012-09-18 10:29:00
5:49 AM,39.2,38.7,98,30.03,10.0,West,3.5,-,N/A,,Clear,280,2012-09-18 10:49:00
6:09 AM,37.6,37.2,99,30.03,10.0,Calm,Calm,-,N/A,,Clear,0,2012-09-18 11:09:00
6:29 AM,36.5,36.5,100,30.04,10.0,West,3.5,-,N/A,,Clear,270,2012-09-18 11:29:00
6:49 AM,37.0,37.0,100,30.04,10.0,Calm,Calm,-,N/A,,Clear,0,2012-09-18 11:49:00
7:09 AM,39.2,38.8,99,30.04,10.0,West,3.5,-,N/A,,Clear,270,2012-09-18 12:09:00
7:29 AM,39.2,38.8,99,30.04,10.0,Calm,Calm,-,N/A,,Clear,0,2012-09-18 12:29:00
7:48 AM,40.1,40.1,100,30.05,10.0,Calm,Calm,-,N/A,,Clear,0,2012-09-18 12:48:00
8:09 AM,40.5,40.1,99,30.05,10.0,Calm,Calm,-,N/A,,Scattered Clouds,0,2012-09-18 13:09:00
8:29 AM,41.7,41.0,97,30.05,10.0,Calm,Calm,-,N/A,,Scattered Clouds,0,2012-09-18 13:29:00
8:49 AM,42.8,41.4,95,30.05,10.0,Calm,Calm,-,N/A,,Mostly Cloudy,0,2012-09-18 13:49:00
9:08 AM,44.1,41.7,91,30.05,10.0,Calm,Calm,-,N/A,,Mostly Cloudy,0,2012-09-18 14:08:00
9:26 AM,46.6,43.3,88,30.05,10.0,NW,3.5,-,N/A,,Mostly Cloudy,310,2012-09-18 14:26:00
9:49 AM,49.1,43.7,82,30.06,10.0,NW,4.6,-,N/A,,Scattered Clouds,310,2012-09-18 14:49:00
10:09 AM,50.2,42.6,75,30.06,10.0,NW,3.5,-,N/A,,Clear,320,2012-09-18 15:09:00
10:28 AM,52.3,42.8,70,30.05,10.0,NW,5.8,-,N/A,,Clear,310,2012-09-18 15:28:00
10:49 AM,54.1,41.2,62,30.05,10.0,NW,8.1,-,N/A,,Clear,320,2012-09-18 15:49:00
11:09 AM,54.1,39.6,58,30.05,10.0,NW,9.2,-,N/A,,Clear,310,2012-09-18 16:09:00
11:29 AM,54.3,38.5,55,30.05,10.0,NW,9.2,-,N/A,,Clear,310,2012-09-18 16:29:00
11:49 AM,54.7,37.8,53,30.05,10.0,NW,9.2,-,N/A,,Scattered Clouds,320,2012-09-18 16:49:00
12:09 PM,56.1,37.9,51,30.05,10.0,WNW,8.1,-,N/A,,Scattered Clouds,300,2012-09-18 17:09:00
12:29 PM,55.4,37.0,50,30.04,10.0,West,6.9,-,N/A,,Scattered Clouds,280,2012-09-18 17:29:00
12:49 PM,56.7,37.2,48,30.04,10.0,WNW,8.1,17.3,N/A,,Scattered Clouds,290,2012-09-18 17:49:00
1:09 PM,57.4,36.9,46,30.03,10.0,West,8.1,-,N/A,,Clear,270,2012-09-18 18:09:00
1:29 PM,59.0,36.1,42,30.02,10.0,NW,8.1,-,N/A,,Clear,310,2012-09-18 18:29:00
1:49 PM,57.4,35.6,44,30.01,10.0,Calm,Calm,-,N/A,,Clear,0,2012-09-18 18:49:00
2:09 PM,58.5,36.3,44,30.01,10.0,West,6.9,-,N/A,,Clear,280,2012-09-18 19:09:00
2:29 PM,58.8,36.1,43,30.00,10.0,Calm,Calm,-,N/A,,Scattered Clouds,0,2012-09-18 19:29:00
2:49 PM,59.2,35.4,41,29.99,10.0,West,6.9,-,N/A,,Clear,270,2012-09-18 19:49:00
3:09 PM,59.2,34.9,40,29.99,10.0,Calm,Calm,-,N/A,,Clear,0,2012-09-18 20:09:00
3:29 PM,59.2,34.9,40,29.98,10.0,West,4.6,-,N/A,,Clear,260,2012-09-18 20:29:00
3:49 PM,59.9,34.3,38,29.98,10.0,WSW,8.1,-,N/A,,Scattered Clouds,250,2012-09-18 20:49:00
4:06 PM,59.2,33.1,37,29.98,10.0,NW,4.6,-,N/A,,Scattered Clouds,320,2012-09-18 21:06:00
4:30 PM,59.0,32.0,36,29.97,10.0,West,8.1,-,N/A,,Mostly Cloudy,280,2012-09-18 21:30:00
4:50 PM,59.0,32.0,36,29.97,10.0,West,6.9,-,N/A,,Mostly Cloudy,260,2012-09-18 21:50:00
5:10 PM,57.2,32.0,38,29.96,10.0,SW,3.5,-,N/A,,Mostly Cloudy,230,2012-09-18 22:10:00
5:30 PM,57.2,33.8,41,29.96,10.0,SW,4.6,-,N/A,,Overcast,220,2012-09-18 22:30:00
5:50 PM,57.2,37.4,48,29.96,10.0,Calm,Calm,-,N/A,,Overcast,0,2012-09-18 22:50:00
6:10 PM,57.2,37.4,48,29.95,10.0,Calm,Calm,-,N/A,,Overcast,0,2012-09-18 23:10:00
6:30 PM,55.4,39.2,54,29.95,10.0,Calm,Calm,-,N/A,,Overcast,0,2012-09-18 23:30:00
6:34 PM,56.5,36.9,48,29.95,10.0,Calm,Calm,-,N/A,,Overcast,0,2012-09-18 23:34:00
6:49 PM,56.3,38.3,51,29.95,10.0,Calm,Calm,-,N/A,,Overcast,0,2012-09-18 23:49:00
7:09 PM,55.4,36.9,50,29.94,10.0,Calm,Calm,-,N/A,,Overcast,0,2012-09-19 00:09:00
7:28 PM,54.1,38.7,56,29.94,10.0,Calm,Calm,-,N/A,,Overcast,0,2012-09-19 00:28:00
7:48 PM,54.1,42.1,64,29.94,10.0,SE,3.5,-,N/A,,Overcast,130,2012-09-19 00:48:00
8:09 PM,54.1,41.9,63,29.94,10.0,SE,4.6,-,N/A,,Overcast,140,2012-09-19 01:09:00
8:28 PM,54.1,38.8,56,29.93,10.0,SE,3.5,-,N/A,,Overcast,140,2012-09-19 01:28:00
8:49 PM,54.1,39.0,57,29.92,10.0,SE,5.8,-,N/A,,Overcast,130,2012-09-19 01:49:00
9:09 PM,54.1,38.7,56,29.91,10.0,SE,5.8,-,N/A,,Overcast,140,2012-09-19 02:09:00
9:28 PM,54.1,40.1,59,29.90,10.0,SE,4.6,-,N/A,,Mostly Cloudy,140,2012-09-19 02:28:00
9:49 PM,51.8,39.4,63,29.90,10.0,SE,5.8,-,N/A,,Mostly Cloudy,130,2012-09-19 02:49:00
10:09 PM,51.8,39.0,62,29.89,10.0,SE,5.8,-,N/A,,Overcast,130,2012-09-19 03:09:00
10:49 PM,51.8,37.4,58,29.87,10.0,SSE,5.8,-,N/A,,Scattered Clouds,150,2012-09-19 03:49:00
11:09 PM,51.8,38.1,60,29.87,10.0,SSE,3.5,-,N/A,,Scattered Clouds,150,2012-09-19 04:09:00
11:29 PM,51.8,38.3,60,29.86,10.0,SSE,3.5,-,N/A,,Mostly Cloudy,150,2012-09-19 04:29:00
11:49 PM,51.8,37.2,58,29.85,10.0,SSE,5.8,-,N/A,,Overcast,150,2012-09-19 04:49:00